www.pogodaiklimat.ru

Погода и климат >> Архив погоды >> Мексика >> Чойс


ПОГОДА в Чойсе

  • Прогноз погоды в Чойсе
  • Монитор погоды в Чойсе

АРХИВ ПОГОДЫ в Чойсе

Время (UTC), дата Ветер
(напр.,м/с)
 
Видим.   Явления Облачность Т
(С)
Тd
(С)
f
(%)
Тe
(С)
Тes
(С)
Комфортность P
(гПа)
Po
(гПа)
Тmin
(С)
Tmax
(С)
R
(мм)
R24
(мм)
S
(см)
15 9.07 штиль 0 30 км ясно +28.2 +24.1 78 +39 +48 очень
душно
1011.7 984.9
18 9.07 штиль 0 30 км ясно +38.4 +31.7 69 +71 +98 опасность
перегрева
1010.7 983.9 +23.0 +39.4
21 9.07 штиль 0 30 км ясно +41.6 +35.3 71 +89 +114 опасность
перегрева
1010.4 983.9
00 10.07 Ю 2 30 км ясно +41.8 +34.0 65 +82 +86 опасность
перегрева
1006.1 980.1 +23.0 +42.8
03 10.07 штиль 0 2000 м слаб. морось {дождь} 10/10 600 м
[Frnb]
+25.0 +19.2 70 +30 +30 душно 1013.4 987.3 13
12 10.07 штиль 0 2000 м 10/10 600 м
[Frnb]
+23.0 +18.6 76 +29 +29 очень
душно
1011.4 984.5 +21.8 +42.8
15 10.07 штиль 0 30 км 10/10 600 м
[Frnb]
+25.4 +19.9 72 +31 +31 очень
душно
1013.7 986.4
18 10.07 штиль 0 30 км ясно +32.2 +25.0 66 +46 +73 опасность
перегрева
1012.0 985.0 +21.8 +33.0
21 10.07 штиль 0 30 км 1/0
[Ci sp]
+39.0 +28.0 54 +59 +83 опасность
перегрева
1009.5 982.8
00 11.07 штиль 0 30 км 4/4 750 м
[Sc diur, vesp]
+40.2 +28.8 53 +62 +65 опасность
перегрева
1007.1 980.9 +21.8 +41.2
03 11.07 штиль 0 2000 м 5/5 750 м
[Sc diur, vesp]
+34.2 +25.3 60 +48 +48 опасность
перегрева
1009.5 983.4
06 11.07 штиль 0 6000 м 6/6 750 м
[Sc]
+30.0 +23.5 68 +41 +41 опасность
перегрева
1009.6 983.6 +21.8 +41.2
09 11.07 С 1 2000 м 4/4 750 м
[Sc diur, vesp]
+27.8 +22.3 72 +36 +36 очень
душно
1008.2 982.1
12 11.07 штиль 0 2000 м ясно +24.6 +20.3 77 +30 +30 очень
душно
1008.9 982.4 +24.4 +41.2
15 11.07 штиль 0 30 км 6/6 750 м
[Sc]
+26.0 +21.2 75 +33 +36 очень
душно
1010.5 983.8
18 11.07 штиль 0 30 км 5/5 750 м
[Sc diur, vesp]
+34.4 +25.7 61 +50 +63 опасность
перегрева
1010.5 983.8 +23.4 +34.6
21 11.07 З 1 30 км 1/1 600 м
[Cu med, cong]
+40.3 +27.9 50 +59 +79 опасность
перегрева
1008.1 981.7
00 12.07 З 1 30 км 4/4 600 м
[Cu med, cong]
+41.5 +28.7 49 +62 +65 опасность
перегрева
1005.5 979.5 +23.4 +41.8
03 12.07 З 1 2000 м 8/8 600 м
[Frnb]
+35.4 +26.0 58 +51 +51 опасность
перегрева
1005.6 979.8
06 12.07 З 1 2000 м 9/9 600 м
[Frnb]
+31.4 +24.0 65 +43 +43 опасность
перегрева
1006.8 980.9 +41.8
09 12.07 Ю 1 2000 м 8/8 600 м
[Frnb]
+29.4 +22.8 68 +39 +39 очень
душно
1007.3 981.3
12 12.07 штиль 0 2000 м ясно +27.4 +22.6 75 +36 +36 очень
душно
1007.1 980.8 +26.1 +41.8
15 12.07 штиль 0 30 км ясно +31.0 +24.6 69 +44 +53 опасность
перегрева
1008.3 981.8
18 12.07 штиль 0 30 км ясно +37.6 +28.1 59 +58 +86 опасность
перегрева
1007.1 980.7 +25.8 +37.8
00 13.07 Ю 2 30 км 9/9 750 м
[Sc diur, vesp]
+35.8 +27.7 63 +55 +56 опасность
перегрева
1002.3 976.5 +25.8 +42.2
03 13.07 ЮЗ 2 2000 м слаб. морось 10/10 750 м
[Sc diur, vesp]
+25.8 +18.8 65 +31 +31 очень
душно
1008.5 982.4 33
06 13.07 Ю 2 2000 м слаб. морось 10/10 750 м
[Sc diur, vesp]
+24.2 +18.0 68 +28 +28 душно 1009.5 983.2 +25.8 +42.2 1
12 13.07 В 1 2000 м ясно +23.9 +17.2 66 +28 +28 душно 1009.3 982.3 +23.0 +42.2
15 13.07 В 1 30 км ясно +28.0 +20.0 62 +34 +42 очень
душно
1010.7 983.6
18 13.07 Ю 1 30 км ясно +33.6 +23.8 57 +45 +69 опасность
перегрева
1010.0 983.1 +22.8 +33.8
21 13.07 В 1 30 км 4/4 600 м
[Cu med, cong]
+37.0 +25.9 53 +52 +65 опасность
перегрева
1008.1 981.6
00 14.07 ЮЗ 1 30 км 5/5 600 м
[Cu med, cong]
+37.5 +26.4 53 +53 +56 опасность
перегрева
1006.5 980.3 +25.8 +38.2
03 14.07 ЮВ 2 2000 м 8/8 600 м
[Cu med, cong]
+29.0 +20.5 60 +36 +36 очень
душно
1008.4 982.2
06 14.07 ЮВ 2 2000 м слаб. морось 10/10 600 м
[Frnb]
+25.2 +18.1 65 +30 +30 душно 1009.8 983.5 +22.8 +38.2 1
15 14.07 штиль 0 30 км ясно +28.2 +20.9 65 +35 +44 очень
душно
1010.7 983.7
18 14.07 В 1 30 км ясно +34.0 +24.8 59 +47 +71 опасность
перегрева
1010.7 983.9 +23.5 +34.0
21 14.07 З 1 30 км 4/4 600 м
[Cu med, cong]
+38.0 +26.3 52 +54 +67 опасность
перегрева
1009.5 983.0
00 15.07 штиль 0 30 км 3/3 600 м
[Cu med, cong]
+37.0 +25.4 52 +51 +55 опасность
перегрева
1006.7 980.5 +23.5 +39.0
03 15.07 С 2 10 км 5/5 750 м
[Sc]
+34.0 +25.0 59 +47 +47 опасность
перегрева
1008.1 982.1
06 15.07 штиль 0 10 км ясно +30.6 +28.5 89 +52 +52 опасность
перегрева
1009.4 983.4 +39.0
09 15.07 штиль 0 10 км ясно +27.8 +21.8 70 +36 +36 очень
душно
1008.8 982.3
12 15.07 штиль 0 2000 м 4/4 750 м
[Sc diur, vesp]
+26.0 +21.8 78 +33 +33 очень
душно
1009.7 983.2 +25.8 +39.0
15 15.07 штиль 0 30 км ясно +30.0 +25.8 78 +45 +53 опасность
перегрева
1010.7 984.0
18 15.07 штиль 0 30 км ясно +36.4 +30.6 72 +65 +92 опасность
перегрева
1008.5 981.9 +25.0 +36.6
21 15.07 штиль 0 30 км ясно +40.2 +32.7 66 +76 +100 опасность
перегрева
1006.2 979.9
00 16.07 штиль 0 30 км ясно +42.4 +33.4 61 +80 +85 опасность
перегрева
1002.9 976.9 +25.0 +43.0
03 16.07 штиль 0 10 км ясно +34.8 +28.1 68 +56 +56 опасность
перегрева
1006.3 980.5
06 16.07 штиль 0 10 км ясно +33.6 +27.7 71 +53 +53 опасность
перегрева
1007.0 981.2 +25.0 +43.0
12 16.07 штиль 0 2000 м ясно +25.4 +24.0 92 +35 +35 очень
душно
1009.2 983.1 +24.0 +43.0

 

Местоположение метеостанции Чойс (Мексика): широта 26.73 долгота -108.20 высота над уровнем моря 238 м.

В архиве по умолчанию представлена погода в Чойсе за последнюю неделю. Архивные данные за месяц целиком и за предыдущие месяцы, начиная с января 2011 года, Вы можете получить, выбрав интересующий диапазон дат из раскрывающегося списка и нажав кнопку "Ввод!".


*Определитесь, кто Вы:
робот инопланетянин человек

Внимание! Время в таблицах - всемирное. Для получения местного времени необходимо прибавить поправку, которая равна -6 ч.

Смотрите также архив погоды в соседних городах и на ближайших метеорологических станциях:

Погода в Сьюдад-Обрегоне (Мексика) (177 км)
Погода в Кульякане (Мексика) (229 км)
Погода в Темосачи (Мексика) (250 км)
Погода в Паррале (Мексика) (259 км)
Погода в Эмпальме (Мексика) (282 км)
Погода в Тепеуанесе (Мексика) (292 км)
Погода в Гуаймасе (Мексика) (296 км)
Погода в Чихуахуа (Мексика) (303 км)
Погода в Чихуахуа университете (Мексика) (303 км)
Погода в Лорето (Мексика) (319 км)

Пояснения к столбцам:

Ветер - указаны скорость ветра в м/с - средняя за 10 мин, порывы в срок и между сроками (в фигурных скобках) и направление, откуда дует ветер: С - северный, СВ - северо-восточный, В - восточный, ЮВ - юго-восточный, Ю - южный, ЮЗ - юго-западный, З - западный, СЗ - северо-западный.
Видимость - горизонтальная дальность видимости в метрах или километрах. При видимости от 1 до 10 км при отсутствии осадков обычно наблюдается дымка, при ухудшении видимости до 1 км и менее - туман. В сухую погоду видимость может ухудшаться дымом, пылью или мглою.
Явления - указаны атмосферные явления, наблюдавшиеся в срок или в последний час перед сроком; фигурными скобками обозначены явления, наблюдавшиеся между сроками (за 1-3 часа до срока); квадратными скобками обозначены град или гололедные отложения с указанием их диаметра в мм.
Облачность - указаны через наклонную черту общая и нижняя облачность в баллах и высота нижней границы облаков в метрах; квадратными скобками обозначены формы облаков: Ci - перистые, Cs - перисто-слоистые, Cc - перисто-кучевые, Ac - высококучевые, As - высокослоистые, Sc - слоисто-кучевые, Ns - слоисто-дождевые, Cu - кучевые, Cb - кучево-дождевые. Подробнее классификацию облаков см. в Атласе облаков (PDF).
T - Температура воздуха - температура, измеренная на высоте 2 м над землей.
Td - Температура точки росы - температура, при понижении до которой содержащийся в воздухе водяной пар достигнет насыщения.
f - Относительная влажность воздуха - влажноcть воздуха, измеренная на высоте 2 м над землей.
Te - Эффективная температура - температура, которую ощущает одетый по сезону человек в тени. Характеристика душности погоды. При расчете учитывается влияние влажности воздуха и скорости ветра на теплоощущения человека.
Tes - Эффективная температура на солнце - температура, которую ощущает человек, с поправкой на солнечный нагрев. Характеристика знойности погоды. Зависит от высоты солнца над горизонтом, облачности и скорости ветра. Ночью, в пасмурную погоду, а также при ветре 12 м/с и более поправка равна нулю.
P - Атмосферное давление - приведенное к уровню моря атмосферное давление.
Po - Атмосферное давление - измеренное на уровне метеостанции атмосферное давление.
Tmin - Минимальная температура - минимум температуры воздуха на высоте 2 м над землей.
Tmax - Максимальная температура - максимум температуры воздуха на высоте 2 м над землей.
R - Количество осадков - Количество выпавших осадков за период времени, мм. При наведении курсора мыши на число - период времени, за который выпало указанное количество осадков.
R24 - Количество осадков - Количество выпавших осадков за 24 часа, мм.
S - Снежный покров - Высота снежного покрова, см. При наведении курсора мыши на число - состояние снежного покрова и степень покрытия местности в баллах.